When you browse on this site, cookies collect data to enhance your experience and personalize the content and advertising you see.
Visit our Privacy Policy to learn more. By continuing to use the site, you agree to this use of cookies and data.
  • In Austria
  • List of Countries
  • For 7 days
  • Water Temperature
  • Weather Map
  • News
  • Weather Widgets
  • user-avatar
    Login

    Hourly Weather Sucre

    Today, 19 February, Wednesday

    Time Temperature Precipitation Wind Pressure Humidity
    00:00 +15°C° 0.4 mm 1 mps 543 mmHg 81%
    01:00 +15°C° 0.4 mm 1 mps 542 mmHg 81%
    02:00 +15°C° 0.4 mm 1 mps 542 mmHg 82%
    03:00 +15°C° 0.3 mm 1 mps 542 mmHg 83%
    04:00 +15°C° 0.3 mm 1 mps 541 mmHg 85%
    05:00 +14°C° 0.3 mm 1 mps 541 mmHg 86%
    06:00 +15°C° 0 mm 1 mps 542 mmHg 85%
    07:00 +15°C° 0 mm 1 mps 542 mmHg 84%
    08:00 +15°C° 0 mm 1 mps 542 mmHg 82%
    09:00 +16°C° 0.1 mm 1 mps 543 mmHg 77%
    10:00 +18°C° 0.1 mm 2 mps 543 mmHg 71%
    11:00 +19°C° 0.1 mm 2 mps 544 mmHg 66%
    12:00 +20°C° 0.3 mm 2 mps 543 mmHg 63%
    13:00 +21°C° 0.3 mm 3 mps 543 mmHg 60%
    14:00 +22°C° 0.3 mm 3 mps 543 mmHg 57%
    15:00 +22°C° 0.2 mm 3 mps 542 mmHg 58%
    16:00 +22°C° 0.2 mm 3 mps 542 mmHg 59%
    17:00 +21°C° 0.2 mm 4 mps 541 mmHg 60%
    18:00 +20°C° 0.6 mm 3 mps 541 mmHg 66%
    19:00 +19°C° 0.6 mm 3 mps 541 mmHg 71%
    20:00 +18°C° 0.6 mm 2 mps 541 mmHg 76%
    21:00 +17°C° 3 mm 2 mps 541 mmHg 80%
    22:00 +17°C° 3 mm 3 mps 541 mmHg 83%
    23:00 +16°C° 3 mm 3 mps 541 mmHg 86%

    Tomorrow, 20 February, Thursday

    Time Temperature Precipitation Wind Pressure Humidity
    00:00 +16°C° 1.2 mm 3 mps 541 mmHg 86%
    01:00 +14°C° 1.2 mm 3 mps 540 mmHg 86%
    02:00 +14°C° 1.2 mm 3 mps 540 mmHg 86%
    03:00 +13°C° 3.2 mm 3 mps 540 mmHg 88%
    04:00 +13°C° 3.2 mm 3 mps 540 mmHg 90%
    05:00 +14°C° 3.2 mm 2 mps 540 mmHg 92%
    06:00 +14°C° 2.7 mm 2 mps 540 mmHg 90%
    07:00 +14°C° 2.7 mm 1 mps 541 mmHg 89%
    08:00 +13°C° 2.7 mm 1 mps 541 mmHg 87%
    09:00 +14°C° 0.6 mm 1 mps 542 mmHg 84%
    10:00 +15°C° 0.6 mm 1 mps 543 mmHg 81%
    11:00 +14°C° 0.6 mm 0 mps 543 mmHg 78%
    12:00 +15°C° 0.8 mm 1 mps 543 mmHg 79%
    13:00 +15°C° 0.8 mm 1 mps 543 mmHg 80%
    14:00 +15°C° 0.8 mm 1 mps 542 mmHg 81%
    15:00 +15°C° 1 mm 1 mps 542 mmHg 83%
    16:00 +15°C° 1 mm 1 mps 541 mmHg 85%
    17:00 +14°C° 1 mm 1 mps 541 mmHg 87%
    18:00 +14°C° 0.3 mm 1 mps 541 mmHg 87%
    19:00 +14°C° 0.3 mm 1 mps 541 mmHg 88%
    20:00 +14°C° 0.3 mm 1 mps 541 mmHg 88%
    21:00 +14°C° 0.1 mm 1 mps 542 mmHg 86%
    22:00 +14°C° 0.1 mm 1 mps 542 mmHg 85%
    23:00 +14°C° 0.1 mm 1 mps 543 mmHg 84%

    Day after tomorrow, 21 February, Friday

    Time Temperature Precipitation Wind Pressure Humidity
    00:00 +14°C° 0.3 mm 1 mps 543 mmHg 85%
    01:00 +14°C° 0.3 mm 1 mps 542 mmHg 86%
    02:00 +14°C° 0.3 mm 1 mps 542 mmHg 87%
    09:00 +14°C° 0.6 mm 1 mps 543 mmHg 84%
    10:00 +14°C° 0.6 mm 1 mps 543 mmHg 85%
    11:00 +14°C° 0.6 mm 2 mps 543 mmHg 86%
    12:00 +14°C° 0.6 mm 2 mps 543 mmHg 85%
    13:00 +14°C° 0.6 mm 2 mps 543 mmHg 84%
    14:00 +14°C° 0.6 mm 2 mps 542 mmHg 83%
    15:00 +14°C° 0.2 mm 2 mps 542 mmHg 81%
    16:00 +14°C° 0.2 mm 2 mps 542 mmHg 80%
    17:00 +14°C° 0.2 mm 2 mps 542 mmHg 78%
    18:00 +14°C° 0.2 mm 2 mps 542 mmHg 82%
    19:00 +13°C° 0.2 mm 1 mps 542 mmHg 86%
    20:00 +13°C° 0.2 mm 1 mps 542 mmHg 89%
    21:00 +13°C° 0.3 mm 1 mps 543 mmHg 90%
    22:00 +12°C° 0.3 mm 1 mps 543 mmHg 91%
    23:00 +12°C° 0.3 mm 1 mps 543 mmHg 92%

    22 February, Saturday

    Time Temperature Precipitation Wind Pressure Humidity
    00:00 +12°C° 0.4 mm 1 mps 543 mmHg 92%
    01:00 +12°C° 0.4 mm 1 mps 542 mmHg 93%
    02:00 +12°C° 0.4 mm 1 mps 542 mmHg 93%
    03:00 +12°C° 0.1 mm 1 mps 542 mmHg 93%
    04:00 +12°C° 0.1 mm 1 mps 542 mmHg 93%
    05:00 +11°C° 0.1 mm 1 mps 542 mmHg 93%
    06:00 +12°C° 0.1 mm 1 mps 542 mmHg 92%
    07:00 +12°C° 0.1 mm 1 mps 542 mmHg 91%
    08:00 +12°C° 0.1 mm 1 mps 543 mmHg 91%
    09:00 +12°C° 0.1 mm 1 mps 543 mmHg 89%
    10:00 +12°C° 0.1 mm 2 mps 543 mmHg 88%
    11:00 +12°C° 0.1 mm 2 mps 543 mmHg 86%
    12:00 +13°C° 0.1 mm 2 mps 542 mmHg 82%
    13:00 +14°C° 0.1 mm 2 mps 542 mmHg 78%
    14:00 +14°C° 0.1 mm 3 mps 542 mmHg 74%
    15:00 +14°C° 0.1 mm 3 mps 542 mmHg 74%
    16:00 +14°C° 0.1 mm 3 mps 541 mmHg 73%
    17:00 +14°C° 0.1 mm 3 mps 541 mmHg 73%
    18:00 +14°C° 0.1 mm 2 mps 541 mmHg 76%
    19:00 +14°C° 0.1 mm 2 mps 541 mmHg 80%
    20:00 +13°C° 0.1 mm 2 mps 541 mmHg 83%
    21:00 +13°C° 0 mm 2 mps 541 mmHg 83%
    22:00 +13°C° 0 mm 1 mps 541 mmHg 83%
    23:00 +13°C° 0 mm 1 mps 542 mmHg 83%

    23 February, Sunday

    Time Temperature Precipitation Wind Pressure Humidity
    00:00 +12°C° 0 mm 1 mps 541 mmHg 86%
    01:00 +12°C° 0 mm 1 mps 541 mmHg 88%
    02:00 +11°C° 0 mm 1 mps 540 mmHg 90%
    03:00 +10°C° 0 mm 0 mps 540 mmHg 91%
    04:00 +9°C° 0 mm 0 mps 539 mmHg 92%
    05:00 +9°C° 0 mm 0 mps 539 mmHg 93%
    06:00 +11°C° 0 mm 1 mps 540 mmHg 90%
    07:00 +12°C° 0 mm 1 mps 540 mmHg 87%
    08:00 +12°C° 0 mm 1 mps 541 mmHg 84%
    09:00 +14°C° 0 mm 2 mps 541 mmHg 79%
    10:00 +15°C° 0 mm 2 mps 541 mmHg 74%
    11:00 +16°C° 0 mm 2 mps 542 mmHg 69%
    12:00 +17°C° 0 mm 3 mps 541 mmHg 68%
    13:00 +17°C° 0 mm 3 mps 541 mmHg 67%
    14:00 +18°C° 0 mm 3 mps 541 mmHg 65%
    15:00 +17°C° 0 mm 3 mps 540 mmHg 67%
    16:00 +17°C° 0 mm 3 mps 539 mmHg 68%
    17:00 +16°C° 0 mm 3 mps 539 mmHg 70%
    18:00 +16°C° 0 mm 3 mps 539 mmHg 72%
    19:00 +15°C° 0 mm 2 mps 539 mmHg 75%
    20:00 +15°C° 0 mm 2 mps 539 mmHg 77%
    21:00 +14°C° 0 mm 2 mps 540 mmHg 79%
    22:00 +14°C° 0 mm 2 mps 540 mmHg 80%
    23:00 +14°C° 0 mm 2 mps 540 mmHg 81%

    24 February, Monday

    Time Temperature Precipitation Wind Pressure Humidity
    00:00 +14°C° 0 mm 1 mps 540 mmHg 82%
    01:00 +13°C° 0 mm 1 mps 540 mmHg 83%
    02:00 +13°C° 0 mm 1 mps 539 mmHg 85%
    03:00 +13°C° 0 mm 1 mps 539 mmHg 85%
    04:00 +13°C° 0 mm 1 mps 539 mmHg 86%
    05:00 +12°C° 0 mm 1 mps 539 mmHg 87%
    06:00 +13°C° 0 mm 1 mps 539 mmHg 86%
    07:00 +13°C° 0 mm 1 mps 539 mmHg 85%
    08:00 +13°C° 0 mm 1 mps 540 mmHg 84%
    09:00 +14°C° 0 mm 1 mps 540 mmHg 79%
    10:00 +16°C° 0 mm 2 mps 540 mmHg 74%
    11:00 +17°C° 0 mm 2 mps 541 mmHg 69%
    12:00 +18°C° 0.1 mm 2 mps 541 mmHg 66%
    13:00 +19°C° 0.1 mm 3 mps 541 mmHg 64%
    14:00 +20°C° 0.1 mm 3 mps 541 mmHg 61%
    15:00 +20°C° 0.1 mm 3 mps 540 mmHg 62%
    16:00 +20°C° 0.1 mm 3 mps 540 mmHg 63%
    17:00 +19°C° 0.1 mm 3 mps 539 mmHg 64%
    18:00 +18°C° 0.3 mm 2 mps 539 mmHg 69%
    19:00 +18°C° 0.3 mm 2 mps 539 mmHg 74%
    20:00 +18°C° 0.3 mm 1 mps 539 mmHg 78%
    21:00 +16°C° 0.1 mm 1 mps 539 mmHg 80%
    22:00 +16°C° 0.1 mm 1 mps 540 mmHg 83%
    23:00 +16°C° 0.1 mm 1 mps 540 mmHg 85%
    Show more